Location: Crni Vrh Observatory
(45.9460°N, 14.0712°E)
Time: 06:32:56
(UTC+01:00)

Tiangong 1 - Visible Passes

Search period start: 19 January 2018 00:00
Search period end: 29 January 2018 00:00
Orbit: 263 x 288 km, 42.8° (Epoch: 18 January)

Date Brightness Start Highest point End Pass type
(mag) Time Alt. Az. Time Alt. Az. Time Alt. Az.
19 Jan 1.5 17:58:29 10° WSW 18:00:50 38° S 18:02:14 19° ESE visible
20 Jan 1.7 17:58:07 10° WSW 18:00:26 35° S 18:02:03 16° SE visible
21 Jan 2.1 17:57:39 10° WSW 17:59:54 30° S 18:01:50 12° SE visible
22 Jan 2.6 17:57:08 10° WSW 17:59:13 23° SSW 18:01:16 10° SE visible
23 Jan 3.2 17:56:36 10° WSW 17:58:22 17° SSW 18:00:07 10° SSE visible
24 Jan 3.6 17:56:18 10° SW 17:57:22 12° SSW 17:58:25 10° S visible
